Location: Bogis-Bossey
(46.3500°N, 6.1667°E)
Time: 18:40:47
(UTC+00:00)

USA 238 DEB - Pass Details

Date: 29 February 2024
Orbit: 926 x 1285 km, 63.4° (Epoch: 21 April)

Event Time Altitude Azimuth Distance (km) Brightness Sun altitude
Exits shadow 01:46:16 15° 89° (E) 2,418 5.9 -43.9°
Drops below altitude 10° 01:48:26 10° 70° (ENE) 2,794 6.4 -43.6°
Sets 01:52:11 0° 51° (NE) 3,821 7.4 -43.2°
